NO-44
1 26931U 01043C 23278.35362038 .00000542 00000-0 23700-3 0 9997
2 26931 67.0493 272.3504 0007113 257.9578 102.0726 14.30998929149343
SO-50
1 27607U 02058C 23278.42599328 .00002911 00000-0 41387-3 0 9990
2 27607 64.5545 286.8731 0056920 201.1634 158.7115 14.77709896118519
CO-55
1 27844U 03031E 23278.58438999 .00000780 00000-0 36602-3 0 9994
2 27844 98.6808 284.2443 0010113 159.5222 200.6363 14.22900783 51434
CO-57
1 27848U 03031J 23278.84507985 .00000645 00000-0 30935-3 0 9992
2 27848 98.6844 284.8728 0009718 173.7417 186.3883 14.22395053 51281
RS-22
1 27939U 03042A 23278.79050127 .00003310 00000-0 57538-3 0 9990
2 27939 98.2593 66.7072 0013084 143.3056 348.5342 14.68773195 70775
NOAA-18
1 28654U 05018A 23278.81553807 .00000390 00000-0 23272-3 0 9999
2 28654 98.9012 352.6301 0015127 69.1006 291.1784 14.13021763947194
CO-58
1 28895U 05043F 23278.31048114 .00004065 00000-0 74665-3 0 9994
2 28895 98.1688 49.6511 0017318 86.0103 274.3080 14.66137220956947
CO-65
1 32785U 08021C 23278.39849630 .00008826 00000-0 84629-3 0 9996
2 32785 97.7203 242.1333 0014009 95.9359 264.3458 14.93281490837266
AAUSAT2
1 32788U 08021F 23278.38006378 .00022864 00000-0 15443-2 0 9997
2 32788 97.5718 255.5919 0006902 0.1781 359.9448 15.06570822839689
DO-64
1 32789U 08021G 23278.82057064 .00289561 00000-0 35119-2 0 9996
2 32789 97.2894 300.9322 0006869 100.0870 260.1163 15.59636343844576
CO-66
1 32791U 08021J 23278.86532455 .00014065 00000-0 11840-2 0 9995
2 32791 97.6691 247.9553 0013327 50.4528 309.7870 14.98270607838307
RS-30
1 32953U 08025A 23278.86651102 .00000050 00000-0 28819-3 0 9994
2 32953 82.4999 248.2430 0018560 306.1435 53.7927 12.43129929697401
PRISM
1 33493U 09002B 23278.55605848 .00023090 00000-0 14514-2 0 9997
2 33493 98.2417 301.0019 0016106 41.0998 319.1438 15.09142318800375
NOAA-19
1 33591U 09005A 23278.87398675 .00000322 00000-0 19785-3 0 9990
2 33591 99.0878 326.5109 0012910 292.9009 67.0799 14.12834959755577
SRMSAT
1 37841U 11058D 23278.63638696 .00000688 00000-0 23252-3 0 9996
2 37841 19.9716 262.2149 0011934 164.7575 353.1760 14.10954823618420
HRBE
1 37855U 11061F 23278.80927984 .00052088 00000-0 13527-2 0 9999
2 37855 101.7089 303.5457 0104608 59.8890 301.2657 15.33311159653944
RS-40
1 38735U 12041C 23278.54122088 .00000019 00000-0 66274-4 0 9995
2 38735 82.4777 329.2902 0018208 59.1838 301.1031 12.42596618507424
ZACUBE-1
1 39417U 13066B 23278.43796747 .00009344 00000-0 10494-2 0 9999
2 39417 97.6986 236.3698 0051959 285.4246 74.1234 14.85976241533568
Delfi-N3xt
1 39428U 13066N 23278.34217322 .00009085 00000-0 12690-2 0 9990
2 39428 97.8303 199.3429 0107543 194.2326 165.5847 14.73899093528354
GOMX-1
1 39430U 13066Q 23278.78239725 .00005799 00000-0 99632-3 0 9992
2 39430 97.7616 163.4215 0143994 343.9819 15.6854 14.62384109525690
LO-74
1 39440U 13066AA 23278.79102026 .00009753 00000-0 12257-2 0 9998
2 39440 97.7817 224.0348 0075139 28.5875 331.9425 14.80290882531710
AO-73
1 39444U 13066AE 23278.60322051 .00009843 00000-0 10551-2 0 9999
2 39444 97.6850 239.1890 0049805 268.4531 91.0980 14.87928737532056
SPROUT
1 39770U 14029E 23278.81391012 .00055706 00000-0 35997-2 0 9997
2 39770 97.9975 49.8360 0006031 298.2109 61.8508 15.07985484508793
DTUSAT-2
1 40030U 14033W 23278.28509290 .00009577 00000-0 89673-3 0 9999
2 40030 97.9752 220.3500 0008893 292.2564 67.7712 14.94257825504431
EO-80
1 40032U 14033Y 23278.39413554 .00011475 00000-0 10726-2 0 9992
2 40032 97.9746 220.4769 0008486 292.7958 67.2364 14.94276566504424
HODOYOSHI-1
1 40299U 14070B 23278.86219859 .00022011 00000-0 61641-3 0 9993
2 40299 97.1810 338.7784 0008558 234.7983 125.2461 15.36604293495787
GRIFEX
1 40379U 15003D 23278.80352328 .00097486 00000-0 14556-2 0 9992
2 40379 99.0825 243.2225 0060142 244.6401 114.8612 15.52585963480477
XW-2C
1 40906U 15049H 23278.77226892 .00026395 00000-0 91818-3 0 9998
2 40906 97.4954 286.5136 0012782 125.6057 234.6376 15.29609189445280
XW-2D
1 40907U 15049J 23278.82335269 .00030226 00000-0 96730-3 0 9990
2 40907 97.4927 287.4489 0011999 117.9103 242.3355 15.32287624445404
LILACSAT-2
1 40908U 15049K 23278.85538235 .00010821 00000-0 48611-3 0 9996
2 40908 97.5295 281.7302 0014284 156.4782 203.7109 15.21242625444616
XW-2E
1 40909U 15049L 23278.81176637 .00071562 00000-0 13972-2 0 9997
2 40909 97.4481 295.1178 0009565 87.6103 272.6241 15.47185905446193
XW-2F
1 40910U 15049M 23278.86016852 .00068969 00000-0 13840-2 0 9997
2 40910 97.4579 294.4267 0010359 89.6607 270.5830 15.46390418445936
XW-2B
1 40911U 15049N 23278.83746827 .00029715 00000-0 95953-3 0 9999
2 40911 97.4905 287.8259 0011952 119.3635 240.8802 15.32003425445280
DCBB
1 40912U 15049P 23278.78965499 .00127761 00000-0 17895-2 0 9990
2 40912 97.4075 299.5773 0007827 54.1624 306.0356 15.56313985446731
IO-86
1 40931U 15052B 23278.06664980 .00001680 00000-0 14200-3 0 9996
2 40931 6.0008 22.0818 0012677 49.9995 310.1245 14.77389733433516
ChubuSat-2
1 41338U 16012B 23278.54413266 .00008040 00000-0 54645-3 0 9991
2 41338 31.0017 231.7827 0012275 200.3641 159.6506 15.04974262419013
ChubuSat-3
1 41339U 16012C 23278.55245480 .00007393 00000-0 50525-3 0 9997
2 41339 31.0082 229.0921 0012259 207.2909 152.7084 15.04740749419001
Horyu-4
1 41340U 16012D 23278.08045994 .00014309 00000-0 85849-3 0 9997
2 41340 31.0027 195.5970 0011782 266.4870 93.4421 15.09699256419330
e-st@r-II
1 41459U 16025D 23278.81188803 .00065451 00000-0 15039-2 0 9997
2 41459 98.1711 131.8972 0092221 72.1180 289.0094 15.38021871409852
LO-87
1 41557U 16033B 23278.88104691 .00538755 11690-3 15886-2 0 9997
2 41557 97.3847 33.0619 0003156 284.8554 75.2370 15.92619214411005
Lapan A3
1 41603U 16040E 23278.78419684 .00005306 00000-0 22735-3 0 9990
2 41603 97.1614 299.2505 0010686 288.7184 71.2893 15.23120549404320
Pratham
1 41783U 16059A 23278.60362576 .00001564 00000-0 30344-3 0 9994
2 41783 97.8618 304.7787 0034286 110.1666 250.3230 14.64178140375134
TY-1
1 41844U 16066D 23278.79295422 .00333592 00000-0 19555-2 0 9994
2 41844 97.3544 302.6009 0003458 51.2031 308.9543 15.77375836384950
CAS-2T
1 41847U 16066G 23278.44944733 .00003323 00000-0 50078-3 0 9997
2 41847 98.4931 346.4490 0357545 226.3605 130.7420 14.40082990362671
CAS-4B
1 42759U 17034B 23278.89873555 .00019343 00000-0 89781-3 0 9990
2 42759 43.0137 219.2883 0009788 102.6821 257.5123 15.19659288348466
CAS-4A
1 42761U 17034D 23278.84849487 .00019441 00000-0 90156-3 0 9992
2 42761 43.0137 218.0831 0010282 103.8429 256.3565 15.19683518348467
NIUSat
1 42766U 17036B 23278.59807477 .00064266 00000-0 12723-2 0 9992
2 42766 97.1470 307.8695 0010077 68.5171 291.7153 15.46807665349637
Aalto 1
1 42775U 17036L 23278.63181675 .00042009 00000-0 10339-2 0 9994
2 42775 97.1434 305.7740 0010704 72.2718 287.9696 15.40429380349492
URSA MAIOR
1 42776U 17036M 23278.59188840 .00047985 00000-0 10728-2 0 9991
2 42776 97.1440 307.4655 0010044 68.9036 291.3285 15.43299740349587
Max Valier Sat
1 42778U 17036P 23278.63695999 .00049297 00000-0 10396-2 0 9995
2 42778 97.1423 311.2368 0008675 70.0970 290.1214 15.45038567349749
